Wind_Speed
32 34 40 41 35 30 26 25 22 20 18 17 17 14 12 14 14 14 13 13 14 14 14 14 13 13 13 14 15 17 18 21 26 28 25 22 22 21 18 21 22 24 20
35 33 39 42 39 35 31 28 26 22 22 21 20 19 17 16 18 18 16 16 17 16 15 17 16 15 16 16 18 19 21 22 27 32 31 28 26 26 24 20 21 22 24
38 36 37 45 42 41 39 35 30 28 26 25 25 25 22 18 18 20 19 18 18 19 18 19 19 20 21 20 21 23 23 25 26 30 34 34 33 29 27 23 20 21 21
38 39 39 38 40 43 44 41 37 34 33 30 29 29 27 23 21 21 21 21 20 21 21 22 22 23 25 25 26 27 27 28 28 29 32 34 35 34 32 30 24 21 22
35 36 39 38 36 36 39 44 43 41 39 36 34 32 31 29 28 28 26 26 26 26 26 26 26 26 27 28 28 30 30 30 29 31 34 36 39 39 36 32 28 23 22
27 32 30 30 34 38 36 38 42 44 43 42 42 40 38 36 35 32 32 33 33 32 33 32 32 32 32 32 31 29 29 31 32 33 35 37 39 38 33 29 27 24 24
26 20 20 26 28 31 36 36 35 37 40 44 44 43 45 44 43 41 40 40 40 40 40 39 38 37 36 36 34 33 32 31 32 32 34 34 36 33 29 27 24 23 23
24 30 31 31 32 28 30 36 37 36 35 36 39 42 44 45 43 42 42 44 46 46 46 44 43 41 39 37 36 35 33 32 31 32 32 31 27 24 24 22 24 25 24
21 24 25 28 32 30 30 32 34 37 38 37 37 37 38 36 33 35 37 39 39 40 40 40 40 40 38 36 35 35 34 34 31 28 28 27 25 22 21 23 24 23 25
16 21 25 28 30 32 33 34 34 35 36 36 38 39 39 38 34 32 31 32 34 33 34 35 35 36 35 34 34 34 35 34 30 28 26 25 23 21 20 23 20 19 19
13 14 15 17 21 26 29 30 32 34 37 36 36 35 36 36 36 34 33 35 35 34 35 35 35 33 33 31 30 29 30 27 27 26 26 25 23 21 21 21 19 17 20
8 9 12 15 16 16 18 22 24 28 33 37 38 38 36 36 33 34 33 34 34 35 36 36 34 31 29 28 28 28 27 25 27 27 27 26 23 21 22 20 19 18 20
7 4 7 9 12 15 19 22 25 26 28 32 35 34 34 35 32 32 31 29 31 32 32 31 30 28 28 29 27 25 24 26 26 27 25 21 18 22 21 19 19 20 18
9 8 6 8 11 13 13 13 12 16 23 25 27 28 27 28 27 24 24 20 23 24 24 26 28 29 30 31 26 25 24 22 21 19 19 18 18 20 20 19 20 17 16
10 10 10 8 8 11 13 13 14 12 15 20 24 25 27 29 28 25 23 22 23 24 24 27 28 27 28 28 24 21 21 18 19 20 20 20 20 23 16 18 20 16 17
9 9 12 13 11 12 13 13 13 15 17 18 20 21 29 30 28 25 23 23 24 23 27 28 29 28 28 29 28 26 21 23 31 34 23 23 25 20 16 18 17 16 15
7 9 9 12 15 16 17 15 15 13 13 17 21 21 22 24 23 23 25 27 29 29 31 34 32 31 29 29 28 26 29 28 22 25 26 23 21 20 19 17 16 18 16
6 9 10 12 14 15 17 17 16 16 16 16 15 17 19 23 24 24 24 27 30 31 33 34 33 31 29 29 23 26 29 29 26 22 18 16 21 21 20 20 19 18 17
9 11 11 11 12 15 16 16 16 15 15 14 18 18 17 19 21 21 22 24 27 30 30 28 29 32 33 30 28 29 29 27 22 22 24 18 18 23 23 23 22 15 14
10 12 12 11 11 12 12 13 14 16 16 17 17 15 16 18 17 17 16 19 19 21 21 21 22 24 28 29 27 24 23 18 17 20 23 22 19 21 22 20 22 14 13
12 11 11 11 11 13 13 12 12 13 15 15 15 18 18 15 15 14 13 14 13 15 14 15 15 18 18 20 19 18 18 17 18 21 22 21 19 18 17 17 21 14 14
12 11 12 12 12 12 12 13 12 12 13 13 13 14 15 14 12 11 8 7 5 6 8 9 8 9 9 10 12 13 13 16 17 15 13 14 15 16 16 17 16 14 15
12 10 10 11 12 12 12 12 12 12 12 11 12 12 12 11 10 11 11 8 6 4 4 3 3 3 4 6 6 7 7 7 8 9 9 6 7 10 11 14 14 18 18
9 9 10 11 10 11 11 11 11 12 12 12 11 12 12 13 12 11 10 9 9 8 7 7 7 7 8 9 9 10 9 7 6 5 7 6 7 8 9 12 13 15 16
10 11 11 11 10 11 11 11 12 11 12 12 12 11 12 13 13 11 11 10 9 8 8 8 6 5 6 8 11 13 13 8 10 10 9 10 10 10 9 10 13 14 16
10 12 12 11 10 10 11 11 11 12 11 11 11 10 10 10 11 11 10 10 9 9 8 8 8 8 8 7 8 10 12 12 13 14 14 14 13 12 13 13 13 15 18
Wind_Direction
220 223 219 219 221 226 227 230 231 236 237 240 239 245 261 269 270 269 263 260 257 258 265 270 276 283 286 292 299 304 310 311 308 314 322 329 329 327 322 314 313 315 320
221 223 223 220 224 228 231 231 233 236 233 236 239 247 255 269 262 264 266 262 264 265 267 271 277 282 285 290 296 301 306 310 308 312 316 322 328 329 325 317 313 314 325
226 224 224 226 229 232 236 236 237 238 239 239 241 244 251 258 260 258 265 265 265 269 274 278 284 288 291 296 300 303 307 307 307 308 315 320 323 327 332 330 319 314 317
231 229 229 228 233 237 238 239 241 243 245 246 247 249 252 255 257 256 261 267 271 275 279 283 287 290 295 301 303 305 309 308 307 307 310 313 317 327 331 331 322 309 313
234 236 237 237 238 241 241 240 242 245 249 250 252 255 255 256 257 257 260 265 271 276 279 282 286 291 295 297 300 304 307 306 305 307 309 315 316 321 324 323 316 311 309
235 238 241 241 242 244 247 246 244 246 248 251 253 255 258 260 261 263 264 266 269 273 276 280 283 287 290 293 295 297 298 300 301 303 306 308 312 314 317 313 311 309 310
233 229 236 246 248 247 248 250 249 250 250 250 253 255 257 260 263 264 265 268 271 275 277 279 282 285 289 292 293 294 294 294 294 298 299 302 305 310 309 309 307 304 303
227 230 232 244 254 252 252 249 251 253 254 254 254 256 258 260 263 265 267 268 269 272 275 278 280 283 285 289 290 291 292 294 295 297 299 300 301 304 299 300 302 299 295
224 228 230 232 240 251 252 253 254 256 257 257 258 258 259 261 265 266 266 268 270 271 274 276 278 280 282 285 288 290 292 292 296 297 295 298 301 301 297 301 303 297 294
217 232 235 239 247 253 255 255 255 257 258 259 261 261 262 262 262 264 268 270 271 273 276 276 276 278 280 282 284 286 288 290 295 294 293 294 297 298 300 305 296 284 281
219 223 234 242 249 248 251 254 256 258 260 257 259 262 261 262 263 264 264 266 268 271 273 274 274 276 279 280 282 284 285 290 290 289 291 292 292 291 299 306 298 274 277
208 217 234 245 253 256 258 259 264 262 260 260 261 258 258 261 265 265 263 265 269 270 272 274 276 278 279 279 276 277 281 286 285 286 287 290 291 287 293 299 298 281 273
21 267 240 241 249 254 260 268 264 261 262 260 261 260 259 262 264 266 261 257 259 263 267 272 277 277 274 271 269 271 271 273 279 280 283 279 276 284 290 289 298 282 272
16 7 348 271 253 247 247 260 270 269 263 262 266 268 269 270 266 264 263 266 266 268 273 273 274 274 270 269 264 264 265 263 267 275 282 278 273 278 284 282 288 274 273
10 5 356 344 317 281 269 268 257 252 259 262 272 276 273 270 272 273 271 270 267 268 272 272 272 270 266 265 264 257 253 259 268 277 276 277 275 274 265 276 276 264 265
6 16 20 16 8 346 324 279 268 264 260 267 267 267 268 273 272 269 268 268 272 271 272 271 272 273 272 264 258 258 247 278 295 282 275 276 271 266 258 267 263 269 263
357 358 16 20 24 17 6 342 316 263 259 256 261 263 266 264 269 271 272 270 268 265 264 266 269 271 274 273 265 256 272 291 283 285 280 280 266 261 260 256 259 258 251
341 337 357 8 10 8 10 5 352 333 308 287 273 273 269 267 272 273 272 267 266 264 265 268 267 268 275 276 271 269 276 283 276 279 273 270 270 270 268 260 255 248 253
326 325 337 356 356 355 354 352 353 346 337 325 309 294 292 285 280 275 271 275 275 266 264 263 262 265 269 272 270 269 270 276 275 268 273 268 270 276 272 258 247 243 247
323 325 330 332 335 336 340 342 348 350 344 341 341 330 317 308 297 286 289 288 282 277 261 261 263 259 260 266 268 268 267 263 257 260 262 266 262 268 271 265 253 254 254
309 318 329 329 328 324 328 331 345 351 353 344 338 340 336 332 322 303 293 290 277 271 272 270 267 267 267 270 270 265 255 241 241 256 267 268 274 270 256 264 260 258 248
307 305 312 319 323 323 320 323 329 337 342 348 348 343 333 337 328 316 302 293 271 273 275 269 262 259 257 274 282 273 252 245 252 259 262 265 265 259 254 238 248 245 236
290 290 300 311 317 318 320 318 319 320 325 337 347 348 347 347 347 338 319 310 304 294 277 256 234 250 264 268 265 261 256 256 264 267 259 255 256 245 256 260 246 242 231
276 274 290 305 313 317 318 318 322 323 323 319 320 329 339 349 354 4 0 341 317 306 289 288 288 284 281 278 276 271 270 276 280 277 275 245 231 238 245 248 246 244 235
260 269 283 298 306 311 315 311 315 321 325 325 324 324 324 328 332 338 346 349 352 346 323 315 317 308 298 294 290 285 288 278 267 265 265 266 257 249 243 243 243 239 231
260 260 265 276 285 300 307 304 302 304 305 309 317 318 327 339 341 345 345 344 341 340 338 337 335 330 320 306 294 284 280 273 265 251 251 254 259 264 270 268 255 246 235
Height
1545 1549 1553 1558 1562 1566 1569 1572 1576 1579 1581 1583 1585 1586 1587 1588 1589 1590 1590 1591 1591 1592 1592 1593 1593 1594 1594 1593 1592 1591 1590 1588 1584 1580 1579 1577 1573 1570 1567 1563 1560 1556 1553
1539 1544 1548 1554 1559 1562 1565 1568 1572 1574 1578 1580 1582 1583 1584 1586 1587 1588 1589 1589 1590 1590 1590 1590 1591 1591 1591 1591 1590 1589 1587 1586 1581 1575 1573 1571 1568 1565 1562 1558 1555 1551 1548
1533 1539 1543 1549 1554 1557 1560 1564 1567 1571 1574 1576 1578 1580 1581 1582 1583 1585 1586 1586 1586 1587 1587 1587 1587 1587 1587 1587 1586 1584 1583 1581 1578 1573 1567 1564 1561 1560 1556 1553 1549 1546 1543
1527 1533 1539 1543 1548 1552 1556 1559 1563 1566 1569 1571 1573 1575 1577 1578 1579 1580 1581 1582 1582 1582 1583 1583 1583 1583 1582 1582 1581 1579 1577 1575 1572 1568 1564 1560 1556 1553 1550 1547 1543 1540 1537
1522 1527 1533 1538 1543 1546 1549 1553 1557 1560 1562 1565 1567 1569 1571 1572 1573 1574 1576 1576 1576 1576 1577 1577 1577 1578 1578 1577 1575 1573 1571 1569 1566 1562 1558 1554 1549 1547 1544 1541 1537 1534 1531
1517 1522 1528 1532 1536 1540 1543 1546 1550 1552 1555 1558 1560 1562 1564 1565 1566 1568 1569 1570 1570 1570 1569 1570 1570 1570 1570 1570 1569 1568 1567 1563 1559 1557 1553 1550 1545 1542 1540 1536 1531 1528 1525
1514 1517 1521 1524 1529 1534 1537 1539 1542 1545 1548 1550 1552 1554 1555 1557 1558 1560 1562 1562 1562 1562 1562 1562 1562 1562 1562 1561 1561 1560 1558 1557 1554 1552 1548 1545 1540 1538 1533 1530 1526 1523 1520
1511 1517 1518 1520 1524 1527 1529 1532 1535 1538 1540 1542 1543 1545 1546 1547 1548 1550 1553 1554 1554 1553 1553 1553 1553 1553 1554 1553 1551 1550 1549 1548 1546 1543 1540 1537 1535 1532 1528 1524 1520 1517 1515
1506 1509 1512 1514 1517 1519 1521 1524 1528 1530 1532 1533 1535 1536 1537 1538 1539 1541 1543 1543 1544 1544 1544 1543 1543 1543 1544 1544 1542 1540 1539 1537 1537 1535 1531 1529 1527 1524 1521 1517 1514 1512 1509
1502 1504 1505 1506 1509 1511 1513 1515 1519 1521 1523 1524 1525 1526 1528 1529 1531 1533 1535 1535 1534 1534 1535 1533 1534 1534 1535 1536 1534 1532 1529 1528 1527 1525 1523 1521 1519 1517 1515 1512 1508 1505 1504
1499 1500 1502 1501 1503 1504 1505 1508 1510 1512 1513 1514 1514 1516 1517 1518 1521 1523 1526 1526 1526 1525 1524 1523 1523 1525 1525 1526 1525 1523 1520 1519 1517 1515 1513 1512 1511 1509 1507 1506 1503 1500 1500
1496 1496 1497 1498 1499 1499 1499 1500 1502 1503 1504 1505 1505 1505 1507 1509 1511 1512 1514 1515 1517 1516 1514 1514 1514 1516 1516 1515 1514 1513 1512 1510 1507 1506 1504 1504 1504 1502 1500 1498 1497 1495 1494
1493 1493 1493 1494 1495 1495 1495 1495 1496 1496 1497 1496 1495 1495 1495 1500 1501 1503 1504 1505 1508 1505 1505 1506 1506 1506 1505 1504 1504 1504 1502 1500 1497 1495 1492 1490 1492 1494 1493 1492 1491 1490 1489
1493 1492 1491 1491 1491 1492 1491 1491 1490 1490 1491 1490 1489 1488 1490 1490 1491 1493 1495 1497 1498 1496 1497 1497 1496 1496 1496 1493 1493 1494 1493 1492 1490 1488 1488 1485 1483 1482 1484 1485 1485 1485 1484
1492 1491 1490 1488 1487 1486 1485 1486 1486 1486 1484 1482 1482 1482 1482 1482 1483 1486 1487 1486 1488 1488 1488 1487 1487 1486 1485 1485 1486 1486 1486 1487 1486 1484 1480 1479 1476 1475 1475 1479 1480 1480 1479
1495 1492 1489 1485 1482 1481 1481 1480 1481 1479 1478 1478 1476 1475 1475 1476 1476 1477 1478 1478 1479 1480 1479 1478 1478 1478 1477 1477 1478 1479 1480 1480 1479 1476 1473 1470 1470 1471 1470 1473 1475 1474 1474
1493 1492 1488 1484 1479 1479 1476 1474 1473 1473 1472 1471 1470 1469 1469 1469 1469 1469 1470 1471 1471 1471 1469 1469 1470 1470 1469 1469 1470 1471 1472 1472 1469 1468 1467 1465 1466 1467 1467 1466 1468 1468 1468
1489 1490 1485 1480 1478 1477 1474 1472 1471 1469 1466 1464 1465 1463 1462 1462 1463 1463 1462 1462 1462 1461 1461 1461 1462 1463 1463 1463 1462 1463 1464 1463 1462 1461 1459 1458 1462 1463 1462 1461 1460 1461 1463
1483 1486 1482 1476 1475 1474 1473 1472 1470 1468 1466 1461 1460 1458 1458 1458 1457 1456 1455 1454 1453 1451 1451 1452 1453 1455 1455 1456 1455 1453 1454 1454 1454 1454 1454 1452 1452 1456 1457 1456 1455 1453 1458
1481 1483 1478 1477 1476 1476 1474 1473 1468 1465 1463 1461 1456 1455 1454 1453 1452 1450 1448 1448 1447 1444 1443 1443 1445 1446 1446 1447 1447 1446 1446 1447 1447 1448 1449 1449 1447 1448 1452 1453 1453 1451 1453
1483 1480 1478 1478 1476 1477 1474 1472 1467 1463 1462 1460 1457 1456 1453 1451 1449 1447 1444 1443 1443 1442 1441 1439 1438 1440 1440 1440 1439 1439 1438 1439 1440 1442 1443 1444 1445 1444 1446 1450 1450 1448 1450
1479 1479 1478 1477 1476 1475 1473 1471 1467 1463 1462 1459 1457 1455 1452 1451 1448 1446 1443 1441 1439 1438 1437 1436 1436 1436 1436 1436 1435 1433 1432 1434 1436 1436 1436 1437 1440 1442 1442 1443 1444 1444 1446
1478 1477 1477 1475 1474 1473 1470 1469 1465 1462 1460 1458 1457 1454 1452 1448 1446 1444 1442 1440 1438 1437 1436 1434 1434 1434 1433 1433 1433 1432 1431 1432 1434 1434 1434 1434 1436 1438 1439 1439 1440 1441 1442
1474 1474 1475 1474 1472 1470 1468 1466 1463 1462 1459 1457 1454 1453 1451 1448 1445 1442 1441 1439 1437 1435 1433 1433 1432 1431 1431 1431 1430 1429 1429 1431 1431 1432 1433 1433 1434 1436 1435 1436 1437 1438 1439
1472 1471 1471 1469 1467 1467 1466 1463 1461 1459 1458 1457 1454 1451 1449 1446 1444 1442 1440 1439 1436 1435 1433 1431 1430 1429 1428 1427 1427 1427 1428 1429 1429 1429 1429 1430 1432 1432 1431 1431 1433 1434 1435
1469 1468 1467 1466 1464 1463 1462 1461 1460 1459 1458 1456 1454 1451 1447 1444 1443 1441 1438 1437 1436 1434 1432 1430 1428 1427 1425 1424 1424 1425 1425 1426 1426 1425 1425 1426 1427 1427 1427 1427 1428 1429 1430